Notices

What's New in latest Release from April 7th, 2021:

- Updated Glossary, including Speed of Maximum Gust, and Total Hourly Precipitation

- Updated national and regional climate services offices contacts and prices information

- Addition of station inventory lists for 1981-2010, 1971-2000, and 1961-1990 Normals.

If you haven't already, please take our survey and provide feedback about our website: https://eccc.sondage-survey.ca/f/LanguageSelection.aspx?s=442ca660-fcf1-47c0-95a9-59707d6fd709

Hourly Data Report for November 12, 2006

TORONTO CITY
ONTARIO

43°40'00.000" N
79°24'00.000" W
112.50 m
6158355
71508
XTO

Download Data

Hourly Data (November 2006)
Hourly Data Report for November 12, 2006
TIME
LST
Temp Definition
°C
Dew Point Definition
°C
Rel Hum Definition
%
Precip. Amount Definition
mm

Wind Dir Definition
10's deg

Wind Spd Definition
km/h
Visibility Definition
km
Stn Press Definition
kPa
Hmdx Definition


Wind Chill Definition


Weather Definition


00:00 3.2 0.5 82   LegendMM LegendMM   100.72     LegendNANA
01:00 3.2 -0.1 79   LegendMM LegendMM   100.74     LegendNANA
02:00 3.1 -0.3 78   LegendMM LegendMM   100.74     LegendNANA
03:00 2.8 -0.7 78   LegendMM LegendMM   100.80     LegendNANA
04:00 2.7 -0.9 77   LegendMM LegendMM   100.91     LegendNANA
05:00 2.3 -1.1 78   LegendMM LegendMM   100.99     LegendNANA
06:00 2.4 -0.8 79   LegendMM LegendMM   101.07     LegendNANA
07:00 2.2 -1.3 78   LegendMM LegendMM   101.16     LegendNANA
08:00 2.1 -1.5 77   LegendMM LegendMM   101.20     LegendNANA
09:00 2.3 -1.3 77   LegendMM LegendMM   101.26     LegendNANA
10:00 2.7 -0.9 77   LegendMM LegendMM   101.31     LegendNANA
11:00 3.3 -0.4 77   LegendMM LegendMM   101.29     LegendNANA
12:00 4.2 0.2 75   LegendMM LegendMM   101.24     LegendNANA
13:00 5.5 0.8 72   LegendMM LegendMM   101.18     LegendNANA
14:00 5.2 0.9 74   LegendMM LegendMM   101.18     LegendNANA
15:00 5.2 0.6 72   LegendMM LegendMM   101.21     LegendNANA
16:00 5.2 0.9 74   LegendMM LegendMM   101.24     LegendNANA
17:00 4.6 0.9 77   LegendMM LegendMM   101.24     LegendNANA
18:00 4.5 0.8 77   LegendMM LegendMM   101.28     LegendNANA
19:00 4.6 0.9 77   LegendMM LegendMM   101.30     LegendNANA
20:00 4.7 1.2 78   LegendMM LegendMM   101.25     LegendNANA
21:00 4.7 1.2 78   LegendMM LegendMM   101.24     LegendNANA
22:00 4.7 1.2 78   LegendMM LegendMM   101.25     LegendNANA
23:00 4.8 1.3 78   LegendMM LegendMM   101.18     LegendNANA

Notes on Data Quality.

Legend

  • E = Estimated
  • M = Missing
  • NA = Not Available*
  • [empty] = Indicates an unobserved value
Date modified: